Weather History for KIPT - August, 2013

Change the Weather History Date:

Saturday, August 24, 2013

  Actual Average Record
Temperature  
Mean Temperature 67 °F 70 °F  
Max Temperature 80 °F 81 °F 94 °F (1918)
Min Temperature 53 °F 60 °F 42 °F (1940)
Degree Days  
Heating Degree Days 0 0  
Month to date heating degree days 5 0  
Since 1 June heating degree days 14 41  
Since 1 July heating degree days 5 4  
Cooling Degree Days 2 6  
Month to date cooling degree days 122 166  
Year to date cooling degree days 690 599  
Since 1 June cooling degree days 619 556  
Growing Degree Days 16 (Base 50)    
Moisture  
Dew Point 53 °F    
Average Humidity 64    
Maximum Humidity 93    
Minimum Humidity 35    
Precipitation  
Precipitation 0.00 in 0.12 in 5.22 in (1933)
Month to date precipitation 1.66 3.01  
Year to date precipitation 21.52 26.18  
Sea Level Pressure  
Sea Level Pressure 30.28 in    
Wind  
Wind Speed 2 mph (SSW)    
Max Wind Speed 10 mph    
Max Gust Speed 22 mph    
Visibility 10 miles    
Events      
T = Trace of Precipitation, MM = Missing Value Source: NWS Daily Summary

Daily Weather History Graph

Daily Weather History Graph

Search for Another Location

Airport or City:

Trip Planner

Search our weather history database for the weather conditions in past years. The results will help you decide how hot, cold, wet, or windy it might be!

Date:

Astronomy

Aug. 24, 2013 Rise Set
Actual Time 6:26 AM EDT 7:52 PM EDT
Civil Twilight 5:57 AM EDT 8:21 PM EDT
Nautical Twilight 5:22 AM EDT 8:56 PM EDT
Astronomical Twilight 4:45 AM EDT 9:32 PM EDT
Moon 9:42 PM EDT 10:26 AM EDT
Length of Visible Light 14h 24m
Length of Day
13h 26m
Waning Gibbous, 84% of the Moon is Illuminated
Aug 24
Waning Gibbous
Aug 28
Last Quarter
Sep 5
New
Sep 12
First Quarter
Sep 19
Full

Hourly Weather History & Observations

Time (EDT) Temp. Dew Point Humidity Pressure Visibility Wind Dir Wind Speed Gust Speed Precip Events Conditions
12:54 AM 59.0 °F 54.0 °F 83% 30.19 in 10.0 mi Calm Calm - N/A   Clear
1:54 AM 57.9 °F 54.0 °F 87% 30.19 in 10.0 mi Calm Calm - N/A   Clear
2:54 AM 57.0 °F 53.1 °F 87% 30.21 in 10.0 mi Calm Calm - N/A   Clear
3:54 AM 55.9 °F 53.1 °F 90% 30.22 in 10.0 mi Calm Calm - N/A   Clear
4:54 AM 55.0 °F 52.0 °F 89% 30.24 in 10.0 mi Calm Calm - N/A   Clear
5:54 AM 54.0 °F 52.0 °F 93% 30.25 in 10.0 mi Calm Calm - N/A   Clear
6:54 AM 54.0 °F 51.1 °F 90% 30.29 in 10.0 mi Calm Calm - N/A   Clear
7:54 AM 57.9 °F 54.0 °F 87% 30.31 in 10.0 mi Calm Calm - N/A   Clear
8:54 AM 61.0 °F 54.0 °F 78% 30.31 in 10.0 mi WSW 3.5 mph - N/A   Clear
9:54 AM 64.9 °F 55.0 °F 70% 30.32 in 10.0 mi Variable 3.5 mph - N/A   Clear
10:54 AM 70.0 °F 54.0 °F 57% 30.32 in 10.0 mi Calm Calm - N/A   Clear
11:54 AM 73.9 °F 53.1 °F 48% 30.31 in 10.0 mi Calm Calm - N/A   Clear
12:54 PM 73.9 °F 52.0 °F 46% 30.30 in 10.0 mi WSW 3.5 mph - N/A   Scattered Clouds
1:54 PM 78.1 °F 50.0 °F 37% 30.29 in 10.0 mi South 6.9 mph - N/A   Scattered Clouds
2:54 PM 78.1 °F 51.1 °F 39% 30.28 in 10.0 mi Variable 4.6 mph - N/A   Clear
3:54 PM 79.0 °F 48.9 °F 35% 30.27 in 10.0 mi Variable 3.5 mph - N/A   Scattered Clouds
4:54 PM 80.1 °F 50.0 °F 35% 30.26 in 10.0 mi SE 6.9 mph - N/A   Clear
5:54 PM 79.0 °F 51.1 °F 38% 30.27 in 10.0 mi SSE 5.8 mph - N/A   Clear
6:54 PM 75.9 °F 53.1 °F 45% 30.27 in 10.0 mi South 8.1 mph - N/A   Clear
7:54 PM 73.0 °F 53.1 °F 49% 30.29 in 10.0 mi SSW 5.8 mph - N/A   Clear
8:54 PM 68.0 °F 55.0 °F 63% 30.30 in 10.0 mi North 4.6 mph - N/A   Clear
9:54 PM 64.9 °F 55.0 °F 70% 30.32 in 10.0 mi Calm Calm - N/A   Clear
10:54 PM 62.1 °F 55.0 °F 78% 30.33 in 10.0 mi Calm Calm - N/A   Clear
11:54 PM 60.1 °F 55.0 °F 83% 30.33 in 10.0 mi Calm Calm - N/A   Clear